Weather observations for the past three days for
Petaluma Municipal Airport
Metric (Imperial)
Date Time (pdt) Wind (kph) Vis. (km) Weather Sky Cond. Temperature (ºC) Relative Humidity Wind Chill (°C) Heat Index (°C) Pressure Precipitation (cm)
Air Dwpt 6 hour altimeter (cm) sea level (mb) 1 hr 3 hr 6 hr
Max. Min.
06 09:10 NW 9 16.09 Overcast OVC006 12 12 100% 76.2 0.0
06 08:50 Vrbl 6 16.09 Overcast OVC006 12 12 100% 76.2 0.0
06 08:35 Calm 16.09 Overcast OVC006 12 12 100% 76.2 0.0
06 08:15 N 7 16.09 Overcast OVC007 11 11 100% 76.2 0.0
06 07:50 Calm 16.09 Overcast OVC009 10 10 100% 76.2 0.0
06 07:35 Calm 16.09 Overcast OVC009 10 10 100% 76.17 0.0
06 07:10 Calm 16.09 Mostly Cloudy BKN009 8 8 100% 76.15 0.0
06 06:55 Calm 16.09 Mostly Cloudy BKN009 8 8 100% 76.15 0.0
06 06:35 Calm 16.09 Overcast OVC008 8 8 100% 76.15 0.0
06 06:10 N 7 16.09 Mostly Cloudy BKN010 BKN023 BKN028 8 8 100% 7 76.12 0.0
06 05:50 Calm 16.09 Partly Cloudy FEW023 SCT028 SCT032 7 7 100% 76.1 0.0
06 05:35 Calm 16.09 Mostly Cloudy FEW020 BKN026 7 7 100% 76.1 0.0
06 05:15 Calm 14.48 Partly Cloudy SCT022 7 7 100% 76.1 0.0
06 04:50 Calm 16.09 Partly Cloudy SCT022 7 7 100% 76.1 0.0
06 04:35 Calm 9.66 Fog/Mist SCT022 7 7 100% 76.1 0.0
06 04:15 Calm 8.05 Fog/Mist BKN021 8 8 100% 76.1 0.0
06 03:50 Calm 12.87 Mostly Cloudy BKN020 8 7 93% 76.1 0.0
06 03:30 Calm 14.48 Mostly Cloudy BKN019 8 8 100% 76.1 0.0
06 03:10 Calm 16.09 Overcast OVC019 0 0 0% 76.1 0.0
06 02:50 Calm 16.09 Overcast OVC019 9 9 100% 76.1 0.0
06 02:30 Calm 16.09 Mostly Cloudy BKN019 9 9 100% 76.1 0.0
06 02:10 Calm 16.09 Mostly Cloudy BKN019 9 9 100% 76.1 0.0
06 01:50 Calm 16.09 Mostly Cloudy BKN020 9 9 100% 76.1 0.0
06 01:35 Calm 16.09 Mostly Cloudy BKN020 9 9 100% 76.12 0.0
06 01:15 Calm 16.09 Overcast OVC021 10 10 100% 76.12 0.0
06 00:55 Calm 16.09 Mostly Cloudy BKN021 BKN026 10 10 100% 76.12 0.0
06 00:35 Calm 16.09 Overcast OVC021 10 10 100% 76.12 0.0
06 00:15 Calm 16.09 Overcast OVC021 10 10 100% 76.12 0.0
05 23:55 Calm 16.09 Overcast OVC021 10 10 100% 76.12 0.0
05 23:35 Calm 16.09 Overcast OVC020 10 10 100% 76.12 0.0
05 23:15 Calm 16.09 Overcast OVC021 11 11 100% 76.12 0.0
05 22:55 Calm 16.09 Overcast FEW008 OVC021 11 11 100% 76.12 0.0
05 22:35 Calm 16.09 Mostly Cloudy FEW009 BKN020 BKN027 11 11 100% 76.12 0.0
05 22:10 Calm 16.09 Mostly Cloudy FEW009 SCT019 BKN033 12 12 100% 76.12 0.0
05 21:55 Calm 16.09 Mostly Cloudy FEW009 SCT024 BKN035 12 12 100% 76.15 0.0
05 21:35 Calm 16.09 Mostly Cloudy FEW008 SCT024 BKN031 13 13 100% 76.12 0.0
05 21:10 W 11 16.09 Partly Cloudy FEW011 FEW020 SCT027 13 13 100% 76.12 0.0
05 20:50 NW 7 16.09 Mostly Cloudy BKN012 BKN030 13 13 100% 76.12 0.0
05 20:35 Vrbl 7 16.09 Mostly Cloudy BKN013 BKN025 BKN030 14 13 94% 76.1 0.0
05 20:15 W 13 16.09 Partly Cloudy SCT013 SCT026 14 13 94% 76.1 0.0
05 19:55 W 15 16.09 A Few Clouds FEW013 15 13 88% 76.1 0.0
05 19:35 W 15 16.09 Fair CLR 16 12 77% 76.1 0.0
05 19:15 W 15 16.09 Fair CLR 17 12 73% 76.1 0.0
05 18:55 W 13 16.09 Fair CLR 18 11 64% 76.1 0.0
05 18:35 W 19 16.09 Fair CLR 19 10 56% 76.1 0.0
05 18:10 W 19 16.09 Fair CLR 20 9 49% 76.1 0.0
05 17:55 W 19 16.09 Fair CLR 20 9 49% 76.1 0.0
05 17:35 W 15 G 28 16.09 Fair CLR 21 9 46% 76.1 0.0
05 17:10 W 22 16.09 Fair CLR 22 9 44% 76.1 0.0
05 16:50 W 19 16.09 Fair CLR 22 8 41% 76.1 0.0
05 16:35 NW 11 G 33 16.09 Fair CLR 22 7 38% 76.1 0.0
05 16:15 W 24 16.09 Fair CLR 23 8 38% 76.1 0.0
05 15:50 W 22 G 35 16.09 Fair CLR 23 9 41% 76.12 0.0
05 15:35 W 30 16.09 Fair CLR 24 9 39% 25 76.1 0.0
05 15:15 W 22 G 35 16.09 Fair CLR 24 8 36% 25 76.1 0.0
05 14:50 W 22 14.48 Fair CLR 25 6 30% 25 76.1 0.0
05 14:35 W 19 G 31 16.09 Fair CLR 24 8 36% 25 76.12 0.0
05 14:15 W 26 G 39 16.09 A Few Clouds FEW060 25 9 36% 26 76.12 0.0
05 13:50 W 17 G 26 16.09 Mostly Cloudy BKN060 25 9 36% 26 76.1 0.0
05 13:35 W 11 16.09 Fair CLR 26 8 32% 26 76.1 0.0
05 13:15 Calm 16.09 Fair CLR 25 8 34% 26 76.1 0.0
05 12:50 Vrbl 6 16.09 Fair CLR 25 9 36% 26 76.12 0.0
05 10:50 Vrbl 6 16.09 Fair CLR 19 11 60% 76.15 0.0
05 10:35 Vrbl 7 16.09 Fair CLR 18 11 64% 76.17 0.0
05 10:15 Calm 16.09 Fair CLR 17 12 73% 76.17 0.0
05 09:50 Calm 16.09 Fair CLR 15 14 94% 76.17 0.0
05 09:35 Calm 16.09 A Few Clouds FEW002 14 14 100% 76.17 0.0
05 09:15 Calm 9.66 Fog/Mist BKN003 13 13 100% 76.17 0.0
05 08:55 Calm 4.83 Fog/Mist OVC003 11 11 100% 76.17 0.0
05 08:35 Calm 0.40 Fog OVC003 10 10 100% 76.15 0.0
05 08:10 Calm 0.24 Fog OVC003 10 10 100% 76.15 0.0
05 07:50 Calm 0.24 Fog OVC003 9 9 100% 76.15 0.0
05 07:35 W 6 0.40 Fog OVC002 9 9 100% 76.15 0.0
05 07:15 Calm 0.24 Fog OVC002 9 9 100% 76.12 0.0
05 06:50 Calm 1.61 Fog/Mist BKN003 8 8 100% 76.12 0.0
05 06:35 Calm 1.21 Fog/Mist OVC003 8 8 100% 76.12 0.0
05 06:15 Calm 8.05 Fog/Mist OVC003 8 8 100% 76.12 0.0
05 05:50 Calm 0.24 Fog OVC002 8 8 100% 76.1 0.0
05 05:30 Calm 12.87 Overcast OVC002 8 8 100% 76.1 0.0
05 05:15 Calm 0.80 Fog OVC002 9 9 100% 76.1 0.0
05 04:50 Calm 6.44 Fog/Mist OVC002 8 8 100% 76.1 0.0
05 04:30 Calm 12.87 Overcast OVC003 9 9 100% 76.12 0.0
05 04:10 Calm 0.40 Fog OVC003 9 9 100% 76.1 0.0
05 03:50 Calm 9.66 Fog/Mist OVC003 9 9 100% 76.12 0.0
05 03:35 Calm 0.40 Fog OVC003 9 9 100% 76.12 0.0
05 03:15 Calm 0.80 Fog OVC003 10 10 100% 76.12 0.0
05 02:50 Calm 8.05 Fog/Mist BKN003 BKN019 10 10 100% 76.12 0.0
05 02:35 Calm 8.05 Fog/Mist SCT003 BKN019 BKN044 9 9 100% 76.12 0.0
05 02:15 Calm 9.66 Fog/Mist FEW003 OVC020 10 10 100% 76.15 0.0
05 01:50 Calm 16.09 Overcast SCT003 OVC022 11 11 100% 76.12 0.0
05 01:30 Calm 14.48 Overcast FEW003 OVC022 12 12 100% 76.12 0.0
05 01:15 Calm 14.48 Overcast BKN003 OVC022 12 12 100% 76.12 0.0
05 00:50 Calm 14.48 Overcast BKN003 OVC023 12 12 100% 76.12 0.0
05 00:30 NW 6 14.48 Overcast OVC003 12 12 100% 76.12 0.0
05 00:15 Calm 14.48 Overcast OVC003 11 11 100% 76.12 0.0
04 23:50 Calm 14.48 Overcast OVC005 12 12 100% 76.12 0.0
04 23:35 Calm 16.09 Overcast OVC005 12 12 100% 76.12 0.0
04 23:15 Calm 16.09 Overcast OVC006 12 12 100% 76.12 0.0
04 22:50 Calm 16.09 Overcast OVC007 13 13 100% 76.12 0.0
04 22:35 Calm 16.09 Overcast OVC008 13 13 100% 76.12 0.0
04 22:15 Calm 16.09 Overcast OVC009 13 13 100% 76.15 0.0
04 21:55 Calm 16.09 Overcast OVC010 13 13 100% 76.15 0.0
04 21:35 Calm 16.09 Overcast OVC011 14 14 100% 76.15 0.0
04 21:15 Calm 16.09 Overcast OVC013 14 14 100% 76.15 0.0
04 20:55 W 9 16.09 Overcast OVC013 14 14 100% 76.15 0.0
04 20:35 W 9 16.09 Overcast BKN015 OVC021 14 14 100% 76.12 0.0
04 20:10 W 11 16.09 Mostly Cloudy BKN018 BKN024 BKN033 15 13 88% 76.12 0.0
04 19:55 W 13 16.09 Partly Cloudy SCT021 SCT026 SCT033 15 13 88% 76.12 0.0
04 19:35 W 15 16.09 Fair CLR 16 13 83% 76.12 0.0
04 19:10 W 17 16.09 Fair CLR 17 12 73% 76.12 0.0
04 18:55 W 15 G 28 16.09 Fair CLR 17 12 73% 76.1 0.0
04 18:35 W 19 G 33 16.09 Fair CLR 18 11 64% 76.1 0.0
04 18:10 W 17 G 33 16.09 Fair CLR 19 10 56% 76.1 0.0
04 17:55 W 19 16.09 Fair CLR 19 10 56% 76.1 0.0
04 17:35 W 24 16.09 Fair CLR 20 10 53% 76.1 0.0
04 17:15 W 22 G 33 16.09 Fair CLR 20 10 53% 76.07 0.0
04 16:50 W 24 G 33 16.09 Fair CLR 21 10 50% 76.07 0.0
04 16:35 W 28 16.09 Fair CLR 21 9 46% 76.07 0.0
04 16:10 W 24 16.09 Fair CLR 22 9 44% 76.07 0.0
04 15:50 W 20 G 31 16.09 Fair CLR 22 9 44% 76.07 0.0
04 15:30 SW 22 16.09 Fair CLR 23 8 38% 76.07 0.0
04 15:15 W 26 16.09 Fair CLR 23 9 41% 76.07 0.0
04 14:50 W 20 G 33 16.09 Fair CLR 23 8 38% 76.1 0.0
04 14:35 W 22 G 33 16.09 Fair CLR 23 8 38% 76.1 0.0
04 14:15 W 24 16.09 A Few Clouds FEW050 23 9 41% 76.07 0.0
04 13:50 SW 17 16.09 Fair CLR 24 8 36% 25 76.07 0.0
04 13:35 W 15 16.09 Fair CLR 24 9 39% 25 76.07 0.0
04 13:10 Vrbl 6 16.09 Fair CLR 23 9 41% 76.07 0.0
04 12:50 Vrbl 9 16.09 Fair CLR 22 9 44% 76.1 0.0
04 12:30 N 11 16.09 Fair CLR 21 10 50% 76.1 0.0
04 12:15 Vrbl 7 G 19 16.09 Fair CLR 21 10 50% 76.12 0.0
04 11:50 Vrbl 9 G 19 16.09 Fair CLR 20 10 53% 76.12 0.0
04 11:35 Calm 16.09 Fair CLR 19 11 60% 76.12 0.0
04 11:15 W 9 16.09 Fair CLR 18 11 64% 76.12 0.0
04 10:50 Vrbl 9 16.09 Fair CLR 17 12 73% 76.12 0.0
04 10:35 Vrbl 7 16.09 A Few Clouds FEW009 16 14 88% 76.15 0.0
04 10:15 Vrbl 7 16.09 Partly Cloudy SCT008 15 14 94% 76.12 0.0
04 09:50 W 9 16.09 Overcast OVC006 14 14 100% 76.12 0.0
04 09:35 W 11 16.09 Overcast OVC005 13 13 100% 76.12 0.0
04 09:15 W 9 12.87 Overcast OVC004 13 13 100% 76.1 0.0
04 08:50 W 11 2.01 Fog/Mist OVC003 12 12 100% 76.12 0.0
04 08:35 W 11 1.21 Fog/Mist OVC003 12 12 100% 76.1 0.0
04 08:10 Vrbl 6 0.24 Fog OVC003 12 12 100% 76.1 0.0
04 07:50 W 7 0.24 Fog OVC003 12 12 100% 76.07 0.0
04 07:35 W 7 0.24 Fog OVC002 12 12 100% 76.07 0.0
04 07:15 Calm 0.24 Fog OVC003 12 12 100% 76.05 0.0
04 06:50 W 6 0.80 Freezing Fog OVC003 0 0 0% 76.02 0.0
04 06:35 N 6 3.22 Fog/Mist OVC003 12 12 100% 76.02 0.0
04 06:15 NW 6 9.66 Fog/Mist OVC004 12 12 100% 76.02 0.0
04 05:50 W 9 9.66 Fog/Mist OVC004 12 12 100% 76 0.0
04 05:35 Vrbl 7 9.66 Fog/Mist OVC004 12 12 100% 75.97 0.0
04 05:15 W 7 11.27 Overcast OVC004 12 12 100% 75.97 0.0
04 04:50 W 7 12.87 Overcast OVC004 12 12 100% 76 0.0
04 04:35 W 9 12.87 Overcast OVC004 12 12 100% 75.97 0.0
04 04:15 W 11 6.44 Fog/Mist OVC003 13 13 100% 75.97 0.0
04 03:50 Calm 6.44 Fog/Mist OVC004 13 13 100% 75.97 0.0
04 03:35 Calm 8.05 Fog/Mist OVC004 13 13 100% 75.97 0.0
04 03:15 Calm 12.87 Overcast OVC005 12 12 100% 75.97 0.0
04 02:50 Calm 12.87 Overcast OVC005 13 13 100% 75.95 0.0
04 02:30 W 9 16.09 Overcast OVC005 13 13 100% 75.95 0.0
04 02:15 Calm 16.09 Overcast OVC007 14 14 100% 75.95 0.0
04 01:50 Vrbl 6 16.09 Overcast OVC007 14 14 100% 75.97 0.0
04 01:30 W 9 16.09 Overcast OVC008 14 14 100% 75.97 0.0
04 01:10 W 13 16.09 Overcast BKN007 OVC011 14 14 100% 75.97 0.0
04 00:50 W 7 16.09 Overcast OVC007 14 14 100% 75.95 0.0
04 00:30 Calm 16.09 Overcast OVC007 14 14 100% 75.95 0.0
04 00:10 Vrbl 11 16.09 Overcast OVC007 15 15 100% 75.95 0.0
03 23:55 Calm 16.09 Overcast OVC008 15 15 100% 75.95 0.0
03 23:35 Vrbl 7 16.09 Overcast BKN009 OVC014 15 15 100% 75.95 0.0
03 23:10 Vrbl 9 16.09 Overcast OVC007 15 15 100% 75.95 0.0
03 22:55 NW 6 16.09 Overcast OVC007 15 15 100% 75.95 0.0
03 22:35 NW 6 16.09 Overcast OVC007 15 15 100% 75.95 0.0
03 22:15 Calm 16.09 Overcast OVC008 15 15 100% 75.97 0.0
03 21:55 Calm 16.09 Overcast OVC009 15 15 100% 75.97 0.0
03 21:35 W 6 16.09 Overcast OVC008 15 15 100% 75.97 0.0
03 21:10 Calm 16.09 Overcast OVC008 15 15 100% 75.95 0.0
03 20:55 Calm 16.09 Overcast OVC009 15 15 100% 75.95 0.0
03 20:35 Calm 16.09 Overcast OVC010 15 15 100% 75.95 0.0
03 20:15 Calm 16.09 Overcast OVC011 15 15 100% 75.95 0.0
03 19:50 Calm 16.09 Overcast BKN013 BKN041 OVC065 15 15 100% 75.92 0.0
03 19:35 Calm 16.09 Mostly Cloudy FEW011 SCT034 BKN055 15 15 100% 75.92 0.0
03 19:15 Calm 16.09 Overcast FEW035 BKN045 OVC070 15 15 100% 75.92 0.0
03 18:55 Calm 14.48 Mostly Cloudy FEW009 SCT013 BKN034 15 15 100% 75.95 0.0
03 18:35 Calm 14.48 Overcast FEW009 FEW015 OVC031 15 15 100% 75.97 0.0
03 18:10 W 9 16.09 Overcast FEW010 FEW014 OVC030 15 15 100% 75.97 0.0
03 17:55 NW 6 12.87 Mostly Cloudy FEW010 SCT017 BKN031 15 15 100% 75.97 0.0 0.03
03 17:35 W 7 4.83 Fog/Mist FEW006 SCT016 BKN021 15 15 100% 75.97 0.0
03 17:10 Calm 2.41 Fog/Mist BKN023 OVC027 15 15 100% 76 0.0
03 16:55 Vrbl 7 4.83 Fog/Mist SCT025 BKN033 15 15 100% 76 0.0 0.03
03 16:35 NW 7 3.22 Fog/Mist FEW023 SCT031 16 16 100% 76 0.0
03 16:15 NW 6 8.05 Fog/Mist FEW016 OVC032 17 16 94% 76.02 0.0
03 15:50 W 9 G 20 16.09 Overcast FEW018 FEW025 OVC033 17 16 94% 76.02 0.0
03 15:35 W 13 14.48 Mostly Cloudy FEW009 SCT019 BKN028 17 17 100% 76.02 0.0
03 15:10 SW 15 2.41 Fog/Mist SCT010 BKN018 OVC022 17 17 100% 76.05 0.0
03 14:50 SW 17 16.09 Mostly Cloudy FEW012 SCT019 BKN025 18 18 100% 76.02 0.0
03 14:30 S 13 8.05 Fog/Mist SCT012 BKN019 OVC044 18 18 100% 76.02 0.0
03 14:10 SW 11 9.66 Fog/Mist FEW009 SCT014 BKN019 18 18 100% 76.05 0.0
03 13:55 SW 9 G 20 1.61 Fog/Mist SCT008 OVC014 17 17 100% 76.05 0.0 0.03
03 13:30 W 11 14.48 Overcast SCT013 BKN019 OVC036 18 17 94% 76.05 0.0
03 13:10 Vrbl 11 12.87 Overcast BKN024 BKN032 OVC040 18 18 100% 76.07 0.0
03 12:50 SW 15 9.66 Fog/Mist FEW015 SCT023 BKN029 18 17 94% 76.07 0.0
03 12:35 SW 15 16.09 Overcast SCT014 BKN021 OVC055 19 18 94% 76.1 0.0
03 11:50 SW 9 3.22 Fog/Mist FEW008 BKN015 BKN021 17 17 100% 76.12 0.0
03 11:35 S 9 2.41 Fog/Mist BKN008 OVC016 17 17 100% 76.12 0.0
03 11:15 SW 9 3.22 Fog/Mist OVC015 17 17 100% 76.12 0.0
03 10:50 SW 7 8.05 Fog/Mist BKN009 OVC015 16 16 100% 76.12 0.0
03 10:35 Calm 4.02 Fog/Mist SCT009 BKN013 BKN019 16 16 100% 76.12 0.0
03 10:15 Calm 3.22 Fog/Mist FEW007 BKN013 16 16 100% 76.12 0.0
03 09:50 Calm 2.01 Fog/Mist BKN009 OVC013 16 16 100% 76.12 0.0
Date Time (pdt) Wind (kph) Vis. (km) Weather Sky Cond. Air Dwpt Max. Min. Relative Humidity Wind Chill (°C) Heat Index (°C) altimeter (cm) sea level (mb) 1 hr 3 hr 6 hr
6 hour
Temperature (ºC) Pressure Precipitation (cm)